EW5835 Weather Reports


Display with metric or nautical units.
time (UTC)temp
F
wind
direction
speed
MPH
gust
MPH
rain 1hr
in
rain 24hr
in
rain mn
in
humidity
%
barometer
mb
20260510170807 66 355 0.0 0.0 0.00 0.63 0.38 63 1012.9
20260510170803 67 353 0.0 0.0 0.00 0.62 0.38 64 1012.8
20260510170415 66 223 0.0 0.0 0.00 0.64 0.38 62 1012.9
20260510165305 67 223 0.0 1.0 0.00 0.65 0.38 62 1012.9
20260510164804 67 330 0.0 1.0 0.00 0.65 0.38 62 1012.9
20260510164301 66 281 0.0 2.0 0.00 0.66 0.38 65 1012.9
20260510163803 67 259 0.0 2.0 0.00 0.66 0.38 61 1013.0
20260510163308 66 230 0.0 5.0 0.00 0.69 0.38 63 1013.0
20260510163303 67 312 0.0 0.0 0.00 0.67 0.38 64 1012.8
20260510162802 67 312 0.0 0.0 0.00 0.67 0.38 62 1013.0
20260510161805 66 289 0.0 5.0 0.00 0.69 0.38 66 1013.0
20260510161301 65 303 0.0 0.0 0.00 0.69 0.38 69 1013.0
20260510160808 65 266 0.0 6.0 0.00 0.71 0.38 70 1013.1
20260510160801 65 252 0.0 1.0 0.00 0.69 0.38 69 1013.1
20260510160301 65 338 0.0 1.0 0.00 0.70 0.38 69 1013.1
20260510155300 64 296 0.0 6.0 0.00 0.71 0.38 70 1013.2
20260510154759 64 265 0.0 2.0 0.00 0.72 0.38 68 1013.2
20260510154300 64 247 0.0 0.0 0.00 0.74 0.38 72 1013.2
20260510153759 64 247 0.0 0.0 0.00 0.74 0.38 72 1013.1
20260510153300 64 321 0.0 0.0 0.00 0.74 0.38 72 1013.1
20260510152804 64 68 0.0 0.0 0.00 0.77 0.38 72 1013.2
20260510152759 64 323 0.0 2.0 0.00 0.75 0.38 72 1013.1
20260510152259 64 316 0.0 2.0 0.00 0.75 0.38 71 1013.2
20260510151259 63 13 0.0 0.0 0.00 0.77 0.38 71 1013.2
20260510150759 63 86 0.0 1.0 0.00 0.78 0.38 71 1013.2
20260510150259 63 286 0.0 1.0 0.00 0.78 0.38 72 1013.2
20260510145758 63 80 0.0 0.0 0.00 0.79 0.38 72 1013.1
20260510145257 63 281 0.0 0.0 0.00 0.80 0.38 73 1013.1
20260510144758 63 23 0.0 0.0 0.00 0.81 0.38 72 1013.0
20260510144256 64 353 0.0 0.0 0.00 0.82 0.38 72 1012.9
20260510143758 64 44 0.0 0.0 0.00 0.82 0.38 75 1012.9
20260510143257 64 262 0.0 2.0 0.00 0.83 0.38 75 1012.9
20260510142758 63 23 0.0 2.0 0.00 0.84 0.38 78 1012.7
20260510142256 62 233 0.0 4.0 0.00 0.84 0.38 76 1012.7
20260510141800 62 238 0.0 0.0 0.00 0.86 0.38 78 1012.6
20260510141756 62 221 1.0 4.0 0.00 0.85 0.38 81 1012.6
20260510140755 61 230 0.0 0.0 0.00 0.86 0.38 83 1012.5
20260510140257 60 334 0.0 0.0 0.00 0.87 0.38 83 1012.5
20260510135756 56 355 0.0 0.0 0.00 0.87 0.38 83 1012.6
20260510135259 60 209 0.0 0.0 0.00 0.88 0.38 83 1012.5
20260510135255 60 336 0.0 0.0 0.00 0.88 0.38 83 1012.6
20260510134255 60 237 0.0 0.0 0.00 0.89 0.38 84 1012.6
20260510133755 59 272 0.0 0.0 0.00 0.89 0.38 86 1012.6
20260510133255 58 257 0.0 0.0 0.00 0.90 0.38 86 1012.6
20260510132755 58 233 0.0 0.0 0.00 0.90 0.38 86 1012.8
20260510132253 58 271 0.0 0.0 0.00 0.91 0.38 86 1012.8
20260510131755 58 292 0.0 0.0 0.00 0.91 0.38 88 1012.8
20260510131252 57 233 0.0 0.0 0.00 0.92 0.38 90 1012.9
20260510130759 56 334 0.0 0.0 0.00 0.93 0.38 93 1012.9
20260510130754 57 296 0.0 0.0 0.00 0.93 0.38 91 1012.9
20260510130253 57 235 0.0 0.0 0.00 0.93 0.38 92 1013.0
20260510125252 57 206 0.0 0.0 0.00 0.93 0.38 94 1012.9
20260510124753 56 61 0.0 0.0 0.00 0.93 0.38 95 1012.9
20260510124254 56 125 0.0 0.0 0.00 0.93 0.38 96 1012.9
20260510123753 56 14 0.0 0.0 0.00 0.94 0.38 96 1012.9
20260510123252 55 330 0.0 0.0 0.00 0.94 0.38 96 1012.9
20260510122758 54 272 0.0 0.0 0.38 0.94 0.38 97 1012.6
20260510122752 55 219 0.0 0.0 0.00 0.94 0.38 96 1012.9
20260510122252 54 247 0.0 0.0 0.00 0.94 0.38 96 1012.7
20260510121752 54 231 0.0 0.0 0.00 0.94 0.38 97 1012.7
20260510120758 53 4 0.0 0.0 0.38 0.94 0.38 97 1012.5
20260510120753 53 31 0.0 0.0 0.38 0.94 0.38 97 1012.4
20260510115751 53 106 0.0 0.0 0.38 0.94 0.38 97 1012.5
20260510115255 53 80 0.0 0.0 0.38 0.94 0.38 97 1012.3
20260510115251 53 85 0.0 0.0 0.38 0.94 0.38 97 1012.4
20260510114904 53 89 0.0 0.0 0.38 0.94 0.38 98 1012.2
20260510113750 52 354 0.0 0.0 0.38 0.94 0.38 98 1012.2
20260510113250 52 103 0.0 0.0 0.38 0.94 0.38 98 1012.2
20260510112751 52 103 0.0 0.0 0.38 0.94 0.38 98 1012.2
20260510112253 104 255 0.0 0.0 0.38 0.94 0.38 100 1012.2
20260510112249 51 85 0.0 0.0 0.38 0.94 0.38 98 1012.2
20260510111905 0 0.0 0.0 0.00 0.56 0.00 1012.1
20260510111251 0 0.0 0.0 0.00 0.56 0.00 1012.2
20260510110749 0 0.0 0.0 0.00 0.56 0.00 1012.2
20260510110355 0 0.0 0.0 0.00 0.57 0.00 1012.1
20260510105247 0 337 0.0 0.0 0.00 0.57 0.00 1012.1
20260510104746 50 337 0.0 0.0 0.00 0.57 0.00 98 1012.2
20260510104248 50 333 0.0 0.0 0.00 0.58 0.00 98 1012.1
20260510104244 50 334 0.0 0.0 0.00 0.58 0.00 98 1012.2
20260510103244 50 334 0.0 0.0 0.00 0.58 0.00 98 1012.1
20260510102745 50 307 0.0 0.0 0.00 0.58 0.00 98 1012.0
20260510102249 50 309 0.0 0.0 0.00 0.58 0.00 97 1011.9
20260510102245 50 309 0.0 0.0 0.00 0.58 0.00 97 1012.0
20260510101855 49 310 0.0 0.0 0.00 0.58 0.00 97 1011.9
20260510100743 49 310 0.0 0.0 0.00 0.58 0.00 97 1011.8
20260510100244 49 309 0.0 0.0 0.00 0.58 0.00 97 1011.9
20260510095747 49 309 0.0 0.0 0.00 0.59 0.00 97 1011.7
20260510095743 49 309 0.0 0.0 0.00 0.58 0.00 97 1011.8
20260510094743 49 309 0.0 0.0 0.00 0.59 0.00 97 1011.7
20260510094243 49 310 0.0 0.0 0.00 0.60 0.00 97 1011.6
20260510093743 49 309 0.0 0.0 0.00 0.60 0.00 97 1011.6
20260510093245 49 309 0.0 0.0 0.00 0.60 0.00 97 1011.3
20260510092742 49 309 0.0 0.0 0.00 0.61 0.00 97 1011.3
20260510092240 49 310 0.0 0.0 0.00 0.61 0.00 97 1011.2
20260510091741 49 307 0.0 0.0 0.00 0.61 0.00 97 1011.1
20260510091242 49 279 0.0 0.0 0.00 0.61 0.00 97 1011.1
20260510090740 49 262 0.0 0.0 0.00 0.62 0.00 97 1010.9
20260510090239 49 262 0.0 0.0 0.00 0.63 0.00 97 1010.8
20260510085739 49 262 0.0 0.0 0.00 0.63 0.00 97 1010.9
20260510085245 49 334 0.0 0.0 0.00 0.65 0.00 97 1011.0
20260510085241 49 334 0.0 0.0 0.00 0.64 0.00 97 1011.0
20260510084239 49 334 0.0 0.0 0.00 0.65 0.00 97 1011.0
20260510083739 49 334 0.0 0.0 0.00 0.65 0.00 97 1010.8
20260510083239 49 334 0.0 0.0 0.00 0.66 0.00 97 1010.9
20260510082739 49 334 0.0 0.0 0.00 0.66 0.00 97 1010.8
20260510082238 49 334 0.0 0.0 0.00 0.66 0.00 97 1010.8
20260510081742 49 334 0.0 0.0 0.00 0.68 0.00 97 1010.7
20260510081738 49 334 0.0 0.0 0.00 0.67 0.00 97 1010.8
20260510080737 0 244 0.0 0.0 0.00 0.68 0.00 1010.8
20260510080241 49 244 0.0 0.0 0.00 0.71 0.00 97 1010.8
20260510080237 49 244 0.0 0.0 0.00 0.69 0.00 97 1010.7
20260510075850 49 244 0.0 0.0 0.00 0.71 0.00 97 1011.1
20260510074736 49 244 0.0 0.0 0.00 0.72 0.00 97 1011.0
20260510074236 49 244 0.0 0.0 0.00 0.73 0.00 97 1011.0
20260510073740 49 244 0.0 0.0 0.00 0.74 0.00 97 1011.1
20260510073736 49 244 0.0 0.0 0.00 0.73 0.00 97 1011.1
20260510072735 49 244 0.0 0.0 0.00 0.76 0.00 97 1011.1
20260510072243 49 244 0.0 0.0 0.00 0.79 0.00 97 1011.0
20260510072236 49 244 0.0 0.0 0.00 0.77 0.00 97 1011.2
20260510071733 49 244 0.0 0.0 0.00 0.78 0.00 97 1011.2
20260510070734 49 244 0.0 0.0 0.00 0.80 0.00 97 1011.2
20260510070234 50 244 0.0 0.0 0.00 0.81 0.00 97 1011.2
20260510065737 0 0.0 0.0 0.00 0.84 0.00 1011.3
20260510065733 50 244 0.0 0.0 0.00 0.82 0.00 97 1011.3
20260510064733 50 244 0.0 0.0 0.00 0.87 0.00 97 1011.3
20260510064235 50 244 0.0 0.0 0.00 0.88 0.00 97 1011.6
20260510064231 50 244 0.0 0.0 0.00 0.88 0.00 97 1011.6
20260510063231 50 254 0.0 0.0 0.00 0.88 0.00 97 1011.8
20260510062730 50 255 0.0 0.0 0.00 0.88 0.00 97 1011.8
20260510062231 50 255 0.0 0.0 0.00 0.88 0.00 97 1011.8
20260510061730 0 0.0 0.0 0.00 0.88 0.00 1011.8
20260510061234 49 312 0.0 0.0 0.00 0.88 0.00 97 1011.6
20260510061229 50 252 0.0 0.0 0.00 0.88 0.00 97 1011.8
20260510060729 50 252 0.0 0.0 0.00 0.88 0.00 97 1011.7
20260510055733 49 279 0.0 0.0 0.00 0.88 0.00 97 1011.5
20260510055729 49 312 0.0 0.0 0.00 0.88 0.00 97 1011.3
20260510054728 49 279 0.0 0.0 0.00 0.88 0.00 97 1011.6
20260510054228 49 268 0.0 0.0 0.00 0.88 0.00 97 1011.3
20260510053728 50 268 0.0 0.0 0.00 0.88 0.00 97 1011.3
20260510053229 50 268 0.0 0.0 0.00 0.88 0.00 97 1011.3
20260510052726 50 268 0.0 0.0 0.00 0.88 0.00 97 1011.2
20260510052231 50 259 0.0 0.0 0.00 0.88 0.00 96 1011.2
20260510052226 50 259 0.0 0.0 0.00 0.88 0.00 97 1011.2
20260510051228 50 259 0.0 0.0 0.00 0.88 0.00 96 1011.2
20260510050727 50 259 0.0 0.0 0.00 0.88 0.00 96 1011.3
20260510050226 50 259 0.0 0.0 0.00 0.88 0.00 96 1011.3
20260510045726 51 259 0.0 0.0 0.00 0.88 0.00 96 1011.3
20260510045225 51 259 0.0 0.0 0.00 0.88 0.00 96 1011.2
20260510044729 51 185 0.0 0.0 0.00 0.88 0.00 97 1011.3
20260510044725 51 240 0.0 0.0 0.00 0.88 0.00 97 1011.2
20260510043726 51 185 0.0 0.0 0.00 0.88 0.00 97 1011.2
20260510043225 51 185 0.0 0.0 0.00 0.88 0.00 96 1011.2
20260510042728 51 185 0.0 0.0 0.00 0.88 0.00 96 1011.1
20260510042724 51 185 0.0 0.0 0.00 0.88 0.00 96 1011.1
20260510041726 51 185 0.0 0.0 0.00 0.88 0.00 96 1011.1
20260510041225 51 185 0.0 0.0 0.00 0.88 0.00 96 1011.1
20260510040725 0 0.0 0.0 0.00 0.88 0.00 1011.1
20260510040224 0 0.0 0.0 0.00 0.88 0.00 1011.1
20260510035723 51 154 0.0 0.0 0.00 0.88 0.87 96 1011.0
20260510035222 51 154 0.0 0.0 0.00 0.88 0.87 96 1011.0
20260510034721 51 154 0.0 0.0 0.00 0.88 0.87 96 1010.8
20260510034221 51 154 0.0 0.0 0.00 0.88 0.87 96 1010.8
20260510033722 51 154 0.0 0.0 0.00 0.88 0.87 96 1010.9
20260510033221 51 154 0.0 0.0 0.00 0.88 0.87 96 1010.9
20260510032727 51 154 0.0 0.0 0.00 0.88 0.87 96 1010.9
20260510032721 51 154 0.0 0.0 0.00 0.88 0.87 96 1011.0
20260510031721 51 154 0.0 0.0 0.00 0.88 0.87 96 1010.9
20260510031220 51 154 0.0 0.0 0.00 0.88 0.87 96 1011.0
20260510030721 51 259 0.0 0.0 0.00 0.88 0.87 96 1011.1
20260510030219 51 259 0.0 0.0 0.00 0.88 0.87 96 1011.1
20260510025720 51 259 0.0 0.0 0.00 0.88 0.87 96 1011.1
20260510025220 51 259 0.0 0.0 0.00 0.88 0.87 96 1011.0
20260510024718 51 259 0.0 0.0 0.00 0.88 0.87 96 1011.0
20260510024222 51 259 0.0 0.0 0.00 0.88 0.87 96 1011.0
20260510024218 51 259 0.0 0.0 0.00 0.88 0.87 96 1011.0
20260510023218 51 259 0.0 0.0 0.00 0.88 0.87 96 1011.0
20260510022718 51 259 0.0 0.0 0.00 0.88 0.87 96 1011.0
20260510022219 51 259 0.0 0.0 0.00 0.88 0.87 96 1010.8
20260510021718 51 258 0.0 0.0 0.00 0.88 0.87 96 1010.7
20260510021218 51 259 0.0 0.0 0.00 0.88 0.87 96 1010.8
20260510020722 51 259 0.0 0.0 0.00 0.88 0.87 96 1010.8
20260510020718 51 259 0.0 0.0 0.00 0.88 0.87 96 1010.7
20260510015722 51 259 0.0 0.0 0.00 0.88 0.87 96 1010.6
20260510015717 51 259 0.0 0.0 0.00 0.88 0.87 96 1010.6
20260510014717 51 259 0.0 0.0 0.00 0.88 0.87 96 1010.6
20260510014216 51 259 0.0 0.0 0.00 0.88 0.87 95 1010.6
20260510013716 51 259 0.0 0.0 0.00 0.88 0.87 95 1010.6
20260510013217 51 259 0.0 0.0 0.00 0.88 0.87 95 1010.7
20260510012716 51 259 0.0 0.0 0.00 0.88 0.87 95 1010.7
20260510012216 51 259 0.0 0.0 0.00 0.88 0.87 95 1010.8
20260510011719 51 340 0.0 0.0 0.00 0.88 0.87 95 1010.7
20260510011715 51 254 0.0 0.0 0.00 0.88 0.87 95 1010.8
20260510010723 52 340 0.0 0.0 0.00 0.88 0.87 94 1010.5
20260510010715 52 340 0.0 0.0 0.00 0.88 0.87 95 1010.7
20260510010216 52 340 0.0 0.0 0.00 0.88 0.87 95 1010.6
20260510005214 52 340 0.0 0.0 0.00 0.88 0.87 94 1010.5
20260510004713 52 340 0.0 0.0 0.00 0.88 0.87 94 1010.4
20260510004214 52 340 0.0 0.0 0.00 0.88 0.87 94 1010.4
20260510003713 52 340 0.0 0.0 0.00 0.88 0.87 94 1010.3
20260510003213 52 340 0.0 0.0 0.00 0.88 0.87 94 1010.1
20260510002712 53 340 0.0 0.0 0.00 0.88 0.87 93 1010.1
20260510002213 53 340 0.0 0.0 0.00 0.88 0.87 93 1009.9
20260510001714 53 340 0.0 0.0 0.00 0.88 0.87 93 1010.0
20260510001212 53 340 0.0 0.0 0.00 0.88 0.87 93 1010.0
20260510000713 53 340 0.0 0.0 0.00 0.88 0.87 93 1010.0
20260510000212 53 340 0.0 0.0 0.00 0.88 0.87 93 1010.1
20260509235712 53 341 0.0 0.0 0.00 0.88 0.87 92 1010.0
20260509235210 54 338 0.0 0.0 0.00 0.88 0.87 92 1009.9
20260509234712 54 338 0.0 0.0 0.00 0.88 0.87 92 1009.9
20260509234211 54 338 0.0 0.0 0.00 0.88 0.87 91 1009.7
20260509233711 0 0.0 0.0 0.00 0.88 0.87 1009.5
20260509233211 54 338 0.0 0.0 0.00 0.88 0.87 91 1009.4
20260509232710 54 338 0.0 0.0 0.00 0.88 0.87 91 1009.4
20260509232209 54 338 0.0 0.0 0.00 0.88 0.87 91 1009.4
20260509231709 54 338 0.0 0.0 0.00 0.88 0.87 90 1009.3
20260509231209 54 338 0.0 0.0 0.00 0.88 0.87 90 1009.3
20260509230709 55 338 0.0 0.0 0.00 0.88 0.87 90 1009.3
20260509230209 55 217 0.0 0.0 0.00 0.88 0.87 90 1009.2
20260509225708 55 240 0.0 0.0 0.00 0.88 0.87 90 1009.2
20260509225208 55 111 0.0 0.0 0.00 0.88 0.87 90 1009.2
20260509224712 0 0.0 0.0 0.00 0.88 0.87 1009.4
20260509224708 55 140 0.0 0.0 0.00 0.88 0.87 90 1009.4
20260509223712 56 288 0.0 0.0 0.00 0.88 0.87 91 1009.6
20260509223707 56 288 0.0 0.0 0.00 0.88 0.87 91 1009.6
20260509222706 56 288 0.0 0.0 0.00 0.88 0.87 91 1009.5
20260509222206 56 288 0.0 0.0 0.00 0.88 0.87 91 1009.5
20260509221705 56 290 0.0 0.0 0.00 0.88 0.87 91 1009.5
20260509221205 56 320 0.0 0.0 0.00 0.88 0.87 93 1009.4
20260509220707 55 261 0.0 0.0 0.00 0.88 0.87 94 1009.4
20260509220205 0 0.0 0.0 0.00 0.88 0.87 1009.5
20260509215704 55 228 0.0 0.0 0.00 0.88 0.87 94 1009.5
20260509215204 55 228 0.0 0.0 0.00 0.88 0.87 94 1009.6
20260509214702 55 193 0.0 0.0 0.00 0.88 0.87 94 1009.6
20260509214205 55 125 0.0 0.0 0.00 0.88 0.87 94 1009.7
20260509213704 54 230 0.0 0.0 0.00 0.88 0.87 94 1009.7
20260509213204 54 230 0.0 0.0 0.00 0.88 0.87 95 1009.8
20260509212709 54 330 0.0 0.0 0.01 0.88 0.87 96 1009.8
20260509212704 54 341 0.0 0.0 0.01 0.88 0.87 95 1009.7
20260509211706 0 0.0 0.0 0.01 0.88 0.87 1010.0
20260509211702 54 330 0.0 0.0 0.01 0.88 0.87 96 1009.9
20260509210700 0 0.0 0.0 0.01 0.88 0.87 1010.0
20260509210159 54 251 0.0 0.0 0.02 0.88 0.87 96 1010.0
20260509205703 53 251 0.0 0.0 0.03 0.88 0.87 96 1010.2
20260509205658 54 251 0.0 0.0 0.02 0.88 0.87 96 1010.1
20260509204658 53 251 0.0 0.0 0.03 0.88 0.87 96 1010.1
20260509204158 53 245 0.0 0.0 0.04 0.88 0.87 96 1010.2
20260509203659 53 245 0.0 0.0 0.04 0.88 0.87 96 1010.2
20260509203158 53 245 0.0 0.0 0.04 0.88 0.87 96 1010.3
20260509202658 53 345 0.0 0.0 0.04 0.87 0.86 96 1010.3
20260509202157 53 8 0.0 0.0 0.04 0.87 0.86 96 1010.4
20260509201656 53 59 0.0 0.0 0.05 0.87 0.86 96 1010.3
20260509201156 53 54 0.0 0.0 0.07 0.87 0.86 96 1010.5
20260509200656 53 54 0.0 0.0 0.07 0.87 0.86 96 1010.6
20260509200157 52 54 0.0 0.0 0.06 0.86 0.85 96 1010.6
20260509195656 52 54 0.0 0.0 0.06 0.86 0.85 96 1010.8
20260509195156 52 54 0.0 0.0 0.05 0.85 0.84 96 1010.9
20260509194656 52 51 0.0 0.0 0.05 0.85 0.84 96 1010.9
20260509194201 51 106 0.0 0.0 0.05 0.84 0.83 96 1011.1
20260509194155 52 104 0.0 0.0 0.04 0.84 0.83 96 1011.0
20260509193656 51 87 0.0 0.0 0.05 0.84 0.83 96 1011.0
20260509192656 51 92 0.0 0.0 0.05 0.83 0.82 96 1011.2
20260509192154 51 92 0.0 0.0 0.07 0.83 0.82 96 1011.3
20260509191654 51 93 0.0 0.0 0.06 0.82 0.81 96 1011.2
20260509191155 0 0.0 0.0 0.04 0.80 0.79 1011.2
20260509190653 0 0.0 0.0 0.06 0.80 0.79 1011.1
20260509190153 0 0.0 0.0 0.06 0.80 0.79 1011.3
20260509185652 51 118 0.0 0.0 0.07 0.80 0.79 96 1011.3
20260509185157 50 96 0.0 0.0 0.10 0.80 0.79 96 1011.6
20260509185152 51 118 0.0 0.0 0.08 0.80 0.79 96 1011.3
20260509184651 51 131 0.0 0.0 0.09 0.80 0.79 96 1011.6
20260509183650 50 94 0.0 0.0 0.10 0.79 0.78 96 1011.7
20260509183151 50 83 0.0 0.0 0.12 0.79 0.78 96 1011.6
20260509182652 50 120 0.0 0.0 0.12 0.78 0.77 96 1011.5
20260509182150 0 0.0 0.0 0.10 0.76 0.75 1011.6
20260509181649 50 94 0.0 0.0 0.11 0.76 0.75 96 1011.5
20260509181148 50 94 0.0 0.0 0.12 0.76 0.75 96 1011.5
20260509180649 50 118 0.0 0.0 0.11 0.74 0.74 96 1011.5
20260509180150 50 83 0.0 0.0 0.12 0.74 0.73 96 1011.3
20260509175648 49 86 0.0 0.0 0.11 0.73 0.72 96 1011.2
20260509175148 49 96 0.0 0.0 0.11 0.72 0.71 96 1011.3
20260509174646 49 93 0.0 0.0 0.10 0.71 0.70 95 1011.2
20260509174148 49 87 0.0 0.0 0.10 0.70 0.69 95 1011.2
20260509173648 49 89 0.0 0.0 0.09 0.69 0.68 95 1011.3
20260509173146 49 87 0.0 0.0 0.08 0.67 0.67 95 1011.2
20260509172648 49 87 0.0 0.0 0.07 0.66 0.65 95 1011.2
20260509172147 49 87 0.0 0.0 0.09 0.66 0.65 95 1011.2
20260509171646 49 87 0.0 0.0 0.08 0.65 0.64 95 1011.2
20260509171152 49 87 0.0 0.0 0.06 0.63 0.62 95 1011.3
20260509171146 49 87 0.0 0.0 0.07 0.64 0.63 95 1011.3